Tracking 19246 objects as of 20-Aug-2018
HD Live streaming from Space Station
objects crossing your sky now

NOAA 16 DEB

Track NOAA 16 DEB now!
10-day predictions


NORAD ID: 41374
Int'l Code: 2000-055JT
Perigee: 852.5 km
Apogee: 904.5 km
Inclination: 98.9 °
Period: 102.4 minutes
Semi major axis: 7249 km
RCS: Unknown
Launch date: September 21, 2000
Source: United States (US)
Launch site: AIR FORCE WESTERN TEST RANGE (AFWTR)

Note: This is SATELLITE DEBRIS
aabbcc
Your satellite tracking list
Your tracking list is empty




NASA's NSSDC Master Catalog

Two Line Element Set (TLE):
1 41374U 00055JT  18232.11780366  .00000578  00000-0  37403-3 0  9997
2 41374  98.8946 298.9213 0035863 332.9003  27.0292 14.06497983132531
Source of the keplerian elements: AFSPC